SPOT 6

Last updated on Sun Apr 12 2026 00:02:35 GMT+0000 (Coordinated Universal Time)

1 38755U 12047A 26101.51648771 .00000533 00000+0 12450-3 0 9996 2 38755 98.2160 169.5919 0001336 85.3597 274.7755 14.58588536723334
UTC large
Height (km)
Speed (km/s)
/
Latitude / Longitude
Inclination (degrees)
Orbital Period (minutes)
Azimuth
Elevation
Range (km)
Doppler Factor

Next 0 passes for location: London (51.5072 / 0.1276)

Sorry there are no passes over London.
SPOT 6